W3BW-5 Weather Reports


time (UTC)temp
C
wind
direction
speed
KPH
gust
KPH
rain 1hr
cm
rain 24hr
cm
rain mn
cm
humidity
%
barometer
mb
20260504081301 9 238 6.4 9.7 93.04 0.00 0.00 97 1010.4
20260504080314 9 243 6.4 9.7 93.04 0.00 0.00 97 1010.3
20260504070303 8 195 4.8 6.4 93.04 0.00 0.00 96 1010.5
20260504045301 9 295 6.4 9.7 93.04 0.00 0.00 91 1010.5
20260504044308 9 245 1.6 6.4 93.04 0.00 0.00 91 1010.5
20260504043303 9 287 1.6 4.8 93.04 0.00 0.00 90 1010.4
20260504042305 9 283 4.8 6.4 93.04 0.00 0.00 89 1010.2
20260504041301 9 295 6.4 8.0 93.04 0.00 0.00 90 1010.2
20260504040302 9 291 4.8 8.0 93.04 0.00 0.00 90 1010.1
20260504035301 9 0 0.0 0.0 93.04 0.00 0.00 90 1010.1
20260504034302 8 0 0.0 0.0 93.04 0.00 0.00 90 1009.9
20260504033303 9 0 0.0 0.0 93.04 0.00 0.00 88 1009.7
20260504032304 9 0 0.0 0.0 93.04 0.00 0.00 87 1009.7
20260504031301 9 0 0.0 0.0 93.04 0.00 0.03 86 1009.6
20260504030309 10 0 0.0 0.0 93.04 0.00 0.03 86 1009.5
20260504025301 10 257 1.6 3.2 93.04 0.00 0.03 84 1009.5
20260504024301 10 309 3.2 4.8 93.04 0.00 0.03 85 1009.5
20260504023310 10 326 0.0 3.2 93.04 0.00 0.03 84 1009.4
20260504022304 10 338 1.6 4.8 93.04 0.00 0.03 84 1009.5
20260504021301 10 302 3.2 4.8 93.04 0.00 0.03 83 1009.5
20260504020305 10 288 0.0 3.2 93.04 0.00 0.03 84 1009.4
20260504015301 10 0 0.0 0.0 93.04 0.00 0.03 83 1009.4
20260504014303 10 284 1.6 3.2 93.04 0.00 0.03 81 1009.3
20260504013303 10 273 3.2 3.2 93.04 0.00 0.03 84 1009.3
20260504012304 10 0 0.0 0.0 93.04 0.00 0.03 84 1009.3
20260504011301 11 0 0.0 0.0 93.04 0.00 0.03 87 1009.0
20260504010307 11 0 0.0 0.0 93.04 0.00 0.03 85 1008.9
20260504005301 11 0 0.0 0.0 93.04 0.00 0.03 84 1008.9
20260504004303 11 0 0.0 0.0 93.04 0.00 0.03 80 1008.8
20260504003304 12 0 0.0 0.0 93.04 0.00 0.03 75 1008.5
20260504002304 12 0 0.0 0.0 93.04 0.00 0.03 70 1008.5
20260504001301 12 0 0.0 0.0 93.04 0.00 0.03 68 1008.3
20260504000303 13 0 0.0 0.0 93.04 0.00 0.03 66 1008.2
20260503235301 13 0 0.0 0.0 93.04 0.00 0.03 67 1008.0
20260503234303 13 267 3.2 3.2 93.04 0.00 0.03 65 1007.9
20260503233304 13 280 3.2 4.8 93.04 0.00 0.03 63 1007.9
20260503232305 14 262 8.0 14.5 93.04 0.00 0.03 63 1007.9
20260503231301 14 260 8.0 14.5 93.04 0.00 0.03 62 1007.9
20260503230308 14 242 3.2 8.0 93.04 0.00 0.03 63 1007.9
20260503225304 14 193 3.2 9.7 93.04 0.00 0.03 61 1007.7
20260503224305 14 264 9.7 16.1 93.04 0.00 0.03 61 1007.7
20260503223303 14 260 11.3 17.7 93.04 0.00 0.03 61 1007.7
20260503222304 14 300 11.3 17.7 93.04 0.00 0.03 60 1007.8
20260503221303 13 253 16.1 24.1 93.04 0.00 0.03 61 1007.8
20260503220310 13 252 11.3 20.9 93.04 0.00 0.03 62 1007.9
20260503215304 13 253 12.9 25.7 93.04 0.00 0.03 62 1007.9
20260503214303 13 256 16.1 30.6 93.04 0.00 0.03 62 1007.8
20260503213305 14 262 8.0 16.1 93.04 0.00 0.03 61 1007.8
20260503212304 13 257 12.9 24.1 93.04 0.00 0.03 64 1007.9
20260503211301 13 256 16.1 30.6 93.04 0.00 0.03 62 1007.8
20260503210309 13 252 17.7 27.4 93.04 0.00 0.03 64 1007.9
20260503205303 13 257 11.3 32.2 93.04 0.00 0.03 63 1007.9
20260503204304 13 255 17.7 32.2 93.04 0.00 0.03 65 1008.0
20260503203306 13 270 14.5 24.1 93.04 0.00 0.03 63 1008.0
20260503202307 13 250 17.7 33.8 93.04 0.00 0.03 64 1008.2
20260503201301 13 323 12.9 24.1 93.04 0.00 0.03 63 1008.3
20260503200309 13 271 17.7 29.0 93.04 0.00 0.03 64 1008.4
20260503195304 13 260 11.3 25.7 93.04 0.00 0.03 63 1008.5
20260503194303 13 239 9.7 19.3 93.04 0.00 0.03 60 1008.6
20260503193305 13 240 12.9 25.7 93.04 0.00 0.03 61 1008.6
20260503192307 13 259 11.3 22.5 93.04 0.00 0.03 62 1008.7
20260503191301 12 257 12.9 22.5 93.04 0.00 0.03 62 1008.9
20260503190307 12 242 11.3 19.3 93.04 0.00 0.03 63 1009.0
20260503185301 12 240 14.5 38.6 93.04 0.00 0.03 62 1009.1
20260503184305 12 198 9.7 22.5 93.04 0.00 0.03 63 1009.2
20260503183305 12 277 12.9 24.1 93.04 0.00 0.03 66 1009.3
20260503182305 12 270 8.0 22.5 93.04 0.00 0.03 63 1009.4
20260503181301 12 222 9.7 20.9 93.04 0.00 0.03 62 1009.4
20260503180304 12 238 11.3 25.7 93.04 0.00 0.03 62 1009.6
20260503175301 12 217 14.5 30.6 93.04 0.00 0.03 63 1009.7
20260503174303 12 243 12.9 27.4 93.04 0.00 0.03 64 1009.7
20260503173305 12 235 11.3 24.1 93.04 0.00 0.03 64 1009.8
20260503172305 11 218 9.7 19.3 93.04 0.00 0.03 66 1009.9
20260503171302 11 249 14.5 29.0 93.04 0.00 0.03 65 1009.7
20260503170305 12 246 8.0 20.9 93.04 0.00 0.03 68 1009.9
20260503150304 10 252 11.3 25.7 93.04 0.00 0.03 79 1010.7
20260503140305 8 249 9.7 19.3 93.04 0.00 0.03 82 1010.6
20260503131301 8 285 9.7 32.2 93.04 0.00 0.03 86 1010.7
20260503130304 7 250 9.7 25.7 93.04 0.00 0.03 86 1010.7
20260503110306 7 266 9.7 14.5 93.04 0.00 0.03 93 1009.5